Location: Coupvray
(48.8929°N, 2.7967°E)
Time: 07:28:24
(UTC+00:00)

X-37B - Pass Details

Date: 08 October 2020
Orbit: 382 x 392 km, 45.0° (Epoch: 15 October)

Event Time Altitude Azimuth Distance (km) Brightness Sun altitude
Rises 19:41:47 0° 266° (W) 2,266 5.5 -25.0°
Reaches altitude 10° 19:43:56 10° 257° (WSW) 1,409 4.1 -25.4°
Enters shadow 19:44:56 18° 248° (WSW) 1,043 3.2 -25.5°
